カタログに戻る

SL-14 R/B

運用中LEO
NORAD 14522·ROCKET BODY·🇷🇺 Russia

打ち上げ Nov 24, 1983 から Plesetsk Cosmodrome

Loading…

次のパス (今後24時間)

TLE

最新Source: Space-Track

元期: Sep 14, 2026, 18:44 UTC

1 14522U 83115B   26257.78097641  .00000003  00000-0  15002-3 0  9990
2 14522  73.6190 172.7133 0026046 189.4553 197.9535 12.41593174940323

AllMySatでSL-14 R/Bをリアルタイム追跡

Download on the App Store